Time,TemperatureF,DewpointF,PressureIn,WindDirection,WindDirectionDegrees,WindSpeedMPH,WindSpeedGustMPH,Humidity,HourlyPrecipIn,Conditions,Clouds,dailyrainin,SolarRadiationWatts/m^2,SoftwareType,DateUTC
2013-04-22 00:00:00,57.8,49.6,30.31,ESE,103,0.0,2.0,74,0.00,,---,0.00,0.00,VWS V14.01,2013-04-22 04:00:00,
2013-04-22 00:01:00,57.7,49.8,30.31,ESE,103,0.0,2.0,75,0.00,,---,0.00,0.00,VWS V14.01,2013-04-22 04:01:00,
2013-04-22 00:02:00,57.7,49.8,30.31,ESE,103,0.0,0.0,75,0.00,,---,0.00,0.00,VWS V14.01,2013-04-22 04:02:00,
2013-04-22 00:03:00,57.7,49.8,30.31,ESE,103,0.0,0.0,75,0.00,,---,0.00,0.00,VWS V14.01,2013-04-22 04:03:00,
2013-04-22 00:08:00,57.4,49.5,30.31,ESE,114,0.0,1.0,75,0.00,,---,0.00,0.00,VWS V14.01,2013-04-22 04:08:00,
2013-04-22 00:13:00,57.2,48.6,30.31,ENE,68,0.0,3.0,73,0.00,,---,0.00,0.00,VWS V14.01,2013-04-22 04:13:00,
2013-04-22 00:19:00,57.0,48.1,30.30,ENE,69,2.0,2.0,72,0.00,,---,0.00,0.00,VWS V14.01,2013-04-22 04:19:00,
2013-04-22 00:24:00,56.9,47.2,30.30,ENE,65,0.0,3.0,70,0.00,,---,0.00,0.00,VWS V14.01,2013-04-22 04:24:00,
2013-04-22 00:29:00,56.9,47.2,30.30,ENE,59,2.0,4.0,70,0.00,,---,0.00,0.00,VWS V14.01,2013-04-22 04:29:00,
2013-04-22 00:34:00,56.9,47.2,30.30,ENE,58,3.0,4.0,70,0.00,,---,0.00,0.00,VWS V14.01,2013-04-22 04:34:00,
2013-04-22 00:40:00,56.8,46.8,30.30,East,82,0.0,3.0,69,0.00,,---,0.00,0.00,VWS V14.01,2013-04-22 04:40:00,
2013-04-22 00:45:00,56.6,46.2,30.30,ENE,63,0.0,5.0,68,0.00,,---,0.00,0.00,VWS V14.01,2013-04-22 04:45:00,
2013-04-22 00:50:00,56.5,46.1,30.30,NNE,29,0.0,3.0,68,0.00,,---,0.00,0.00,VWS V14.01,2013-04-22 04:50:00,
2013-04-22 00:55:00,56.4,45.6,30.30,NE,49,0.0,5.0,67,0.00,,---,0.00,0.00,VWS V14.01,2013-04-22 04:55:00,
2013-04-22 01:00:00,56.3,45.5,30.30,East,85,0.0,9.0,67,0.00,,---,0.00,0.00,VWS V14.01,2013-04-22 05:00:00,
2013-04-22 01:05:00,56.2,45.4,30.30,East,90,1.0,8.0,67,0.00,,---,0.00,0.00,VWS V14.01,2013-04-22 05:05:00,
2013-04-22 01:10:00,56.1,45.3,30.30,ENE,66,0.0,8.0,67,0.00,,---,0.00,0.00,VWS V14.01,2013-04-22 05:10:00,
2013-04-22 01:15:00,56.1,45.3,30.30,East,90,2.0,6.0,67,0.00,,---,0.00,0.00,VWS V14.01,2013-04-22 05:15:00,
2013-04-22 01:20:00,55.9,45.1,30.30,NE,56,0.0,3.0,67,0.00,,---,0.00,0.00,VWS V14.01,2013-04-22 05:20:00,
2013-04-22 01:25:00,55.9,45.5,30.30,East,87,0.0,7.0,68,0.00,,---,0.00,0.00,VWS V14.01,2013-04-22 05:25:00,
2013-04-22 01:30:00,55.8,45.4,30.31,East,95,1.0,6.0,68,0.00,,---,0.00,0.00,VWS V14.01,2013-04-22 05:30:00,
2013-04-22 01:35:00,55.8,45.4,30.31,NE,54,3.0,6.0,68,0.00,,---,0.00,0.00,VWS V14.01,2013-04-22 05:35:00,
2013-04-22 01:40:00,55.7,45.3,30.30,East,90,2.0,7.0,68,0.00,,---,0.00,0.00,VWS V14.01,2013-04-22 05:40:00,
2013-04-22 01:45:00,55.8,45.4,30.30,ENE,59,5.0,6.0,68,0.00,,---,0.00,0.00,VWS V14.01,2013-04-22 05:45:00,
2013-04-22 01:50:00,55.7,45.3,30.29,ENE,61,0.0,6.0,68,0.00,,---,0.00,0.00,VWS V14.01,2013-04-22 05:50:00,
2013-04-22 01:55:00,55.6,45.2,30.30,ENE,67,3.0,6.0,68,0.00,,---,0.00,0.00,VWS V14.01,2013-04-22 05:55:00,
2013-04-22 02:01:00,55.5,45.1,30.29,NE,55,1.0,5.0,68,0.00,,---,0.00,0.00,VWS V14.01,2013-04-22 06:01:00,
2013-04-22 02:06:00,55.3,45.3,30.29,ENE,63,3.0,6.0,69,0.00,,---,0.00,0.00,VWS V14.01,2013-04-22 06:06:00,
2013-04-22 02:11:00,55.1,45.1,30.29,ENE,68,2.0,6.0,69,0.00,,---,0.00,0.00,VWS V14.01,2013-04-22 06:11:00,
2013-04-22 02:16:00,55.0,45.4,30.28,NE,51,0.0,6.0,70,0.00,,---,0.00,0.00,VWS V14.01,2013-04-22 06:16:00,
2013-04-22 02:21:00,54.8,45.2,30.29,NE,45,0.0,6.0,70,0.00,,---,0.00,0.00,VWS V14.01,2013-04-22 06:21:00,
2013-04-22 02:26:00,54.6,45.0,30.29,NNE,30,3.0,6.0,70,0.00,,---,0.00,0.00,VWS V14.01,2013-04-22 06:26:00,
2013-04-22 02:31:00,54.5,45.3,30.28,ENE,63,0.0,3.0,71,0.00,,---,0.00,0.00,VWS V14.01,2013-04-22 06:31:00,
2013-04-22 02:36:00,54.3,45.1,30.29,ENE,60,0.0,3.0,71,0.00,,---,0.00,0.00,VWS V14.01,2013-04-22 06:36:00,
2013-04-22 02:41:00,54.2,45.0,30.28,NNE,29,0.0,6.0,71,0.00,,---,0.00,0.00,VWS V14.01,2013-04-22 06:41:00,
2013-04-22 02:46:00,54.1,44.9,30.28,NNE,33,0.0,0.0,71,0.00,,---,0.00,0.00,VWS V14.01,2013-04-22 06:46:00,
2013-04-22 02:51:00,54.1,44.9,30.28,ENE,59,1.0,2.0,71,0.00,,---,0.00,0.00,VWS V14.01,2013-04-22 06:51:00,
2013-04-22 02:56:00,54.0,44.8,30.28,NE,49,1.0,2.0,71,0.00,,---,0.00,0.00,VWS V14.01,2013-04-22 06:56:00,
2013-04-22 03:01:00,54.0,44.5,30.28,ENE,69,1.0,3.0,70,0.00,,---,0.00,0.00,VWS V14.01,2013-04-22 07:01:00,
2013-04-22 03:06:00,54.0,44.5,30.27,ENE,60,2.0,2.0,70,0.00,,---,0.00,0.00,VWS V14.01,2013-04-22 07:06:00,
2013-04-22 03:11:00,53.9,44.7,30.27,NE,34,0.0,1.0,71,0.00,,---,0.00,0.00,VWS V14.01,2013-04-22 07:11:00,
2013-04-22 03:17:00,53.7,44.5,30.27,ENE,71,2.0,4.0,71,0.00,,---,0.00,0.00,VWS V14.01,2013-04-22 07:17:00,
2013-04-22 03:22:00,53.5,44.0,30.27,ENE,76,2.0,6.0,70,0.00,,---,0.00,0.00,VWS V14.01,2013-04-22 07:22:00,
2013-04-22 03:27:00,53.4,43.9,30.27,NE,40,1.0,1.0,70,0.00,,---,0.00,0.00,VWS V14.01,2013-04-22 07:27:00,
2013-04-22 03:32:00,53.2,43.7,30.28,ENE,76,3.0,5.0,70,0.00,,---,0.00,0.00,VWS V14.01,2013-04-22 07:32:00,
2013-04-22 03:37:00,53.1,43.2,30.28,ENE,62,0.0,6.0,69,0.00,,---,0.00,0.00,VWS V14.01,2013-04-22 07:37:00,
2013-04-22 03:42:00,52.9,43.0,30.28,ENE,69,0.0,3.0,69,0.00,,---,0.00,0.00,VWS V14.01,2013-04-22 07:42:00,
2013-04-22 03:47:00,52.8,42.9,30.28,NE,55,0.0,0.0,69,0.00,,---,0.00,0.00,VWS V14.01,2013-04-22 07:47:00,
2013-04-22 03:52:00,52.7,42.8,30.28,East,92,1.0,5.0,69,0.00,,---,0.00,0.00,VWS V14.01,2013-04-22 07:52:00,
2013-04-22 03:57:00,52.6,42.7,30.28,NE,46,0.0,4.0,69,0.00,,---,0.00,0.00,VWS V14.01,2013-04-22 07:57:00,
2013-04-22 04:02:00,52.5,42.6,30.28,NE,56,2.0,4.0,69,0.00,,---,0.00,0.00,VWS V14.01,2013-04-22 08:02:00,
2013-04-22 04:07:00,52.5,42.3,30.28,NE,51,3.0,5.0,68,0.00,,---,0.00,0.00,VWS V14.01,2013-04-22 08:07:00,
2013-04-22 04:12:00,52.4,41.8,30.28,NE,44,2.0,4.0,67,0.00,,---,0.00,0.00,VWS V14.01,2013-04-22 08:12:00,
2013-04-22 04:17:00,52.4,41.4,30.28,ENE,63,1.0,4.0,66,0.00,,---,0.00,0.00,VWS V14.01,2013-04-22 08:17:00,
2013-04-22 04:22:00,52.4,41.0,30.28,NE,53,1.0,7.0,65,0.00,,---,0.00,0.00,VWS V14.01,2013-04-22 08:22:00,
2013-04-22 04:27:00,52.4,41.0,30.28,ENE,68,3.0,4.0,65,0.00,,---,0.00,0.00,VWS V14.01,2013-04-22 08:27:00,
2013-04-22 04:33:00,52.4,40.6,30.28,NNE,32,0.0,4.0,64,0.00,,---,0.00,0.00,VWS V14.01,2013-04-22 08:33:00,
2013-04-22 04:38:00,52.3,40.5,30.28,NE,39,0.0,3.0,64,0.00,,---,0.00,0.00,VWS V14.01,2013-04-22 08:38:00,
2013-04-22 04:43:00,52.3,40.5,30.29,NE,54,0.0,7.0,64,0.00,,---,0.00,0.00,VWS V14.01,2013-04-22 08:43:00,
2013-04-22 04:48:00,52.2,40.0,30.29,ENE,63,0.0,5.0,63,0.00,,---,0.00,0.00,VWS V14.01,2013-04-22 08:48:00,
2013-04-22 04:53:00,52.1,40.3,30.28,NE,56,0.0,3.0,64,0.00,,---,0.00,0.00,VWS V14.01,2013-04-22 08:53:00,
2013-04-22 04:58:00,52.1,39.9,30.28,ENE,59,3.0,6.0,63,0.00,,---,0.00,0.00,VWS V14.01,2013-04-22 08:58:00,
2013-04-22 05:03:00,51.9,39.3,30.28,ENE,60,2.0,4.0,62,0.00,,---,0.00,0.00,VWS V14.01,2013-04-22 09:03:00,
2013-04-22 05:08:00,51.9,39.3,30.28,NE,53,1.0,5.0,62,0.00,,---,0.00,0.00,VWS V14.01,2013-04-22 09:08:00,
2013-04-22 05:13:00,51.8,38.8,30.28,ENE,73,4.0,7.0,61,0.00,,---,0.00,0.00,VWS V14.01,2013-04-22 09:13:00,
2013-04-22 05:18:00,51.7,38.7,30.28,ENE,67,3.0,7.0,61,0.00,,---,0.00,0.00,VWS V14.01,2013-04-22 09:18:00,
2013-04-22 05:23:00,51.7,38.7,30.27,East,88,3.0,5.0,61,0.00,,---,0.00,0.00,VWS V14.01,2013-04-22 09:23:00,
2013-04-22 05:28:00,51.6,39.0,30.28,NNE,33,0.0,8.0,62,0.00,,---,0.00,0.00,VWS V14.01,2013-04-22 09:28:00,
2013-04-22 05:33:00,51.5,38.9,30.28,NE,37,0.0,3.0,62,0.00,,---,0.00,0.00,VWS V14.01,2013-04-22 09:33:00,
2013-04-22 05:38:00,51.5,38.9,30.28,ENE,58,3.0,3.0,62,0.00,,---,0.00,0.00,VWS V14.01,2013-04-22 09:38:00,
2013-04-22 05:44:00,51.4,38.8,30.28,ENE,70,0.0,0.0,62,0.00,,---,0.00,0.00,VWS V14.01,2013-04-22 09:44:00,
2013-04-22 05:49:00,51.3,39.2,30.28,NE,55,3.0,5.0,63,0.00,,---,0.00,0.00,VWS V14.01,2013-04-22 09:49:00,
2013-04-22 05:54:00,51.2,39.0,30.29,ENE,59,3.0,7.0,63,0.00,,---,0.00,0.00,VWS V14.01,2013-04-22 09:54:00,
2013-04-22 05:59:00,51.1,39.0,30.29,ENE,63,3.0,7.0,63,0.00,,---,0.00,0.00,VWS V14.01,2013-04-22 09:59:00,
2013-04-22 06:05:00,51.0,38.5,30.29,ENE,66,2.0,6.0,62,0.00,,---,0.00,0.00,VWS V14.01,2013-04-22 10:05:00,
2013-04-22 06:10:00,51.0,38.9,30.29,ENE,63,0.0,4.0,63,0.00,,---,0.00,0.00,VWS V14.01,2013-04-22 10:10:00,
2013-04-22 06:15:00,50.9,38.8,30.30,ENE,69,0.0,2.0,63,0.00,,---,0.00,0.00,VWS V14.01,2013-04-22 10:15:00,
2013-04-22 06:20:00,50.8,38.7,30.30,ENE,63,0.0,8.0,63,0.00,,---,0.00,0.00,VWS V14.01,2013-04-22 10:20:00,
2013-04-22 06:25:00,50.8,39.1,30.30,ENE,59,0.0,2.0,64,0.00,,---,0.00,0.00,VWS V14.01,2013-04-22 10:25:00,
2013-04-22 06:30:00,50.6,38.9,30.30,NE,41,0.0,3.0,64,0.00,,---,0.00,0.00,VWS V14.01,2013-04-22 10:30:00,
2013-04-22 06:35:00,50.6,38.1,30.30,ENE,58,1.0,8.0,62,0.00,,---,0.00,0.00,VWS V14.01,2013-04-22 10:35:00,
2013-04-22 06:40:00,50.5,38.4,30.30,ENE,68,2.0,5.0,63,0.00,,---,0.00,0.00,VWS V14.01,2013-04-22 10:40:00,
2013-04-22 06:45:00,50.4,38.3,30.30,NE,54,3.0,6.0,63,0.00,,---,0.00,0.00,VWS V14.01,2013-04-22 10:45:00,
2013-04-22 06:50:00,50.4,38.3,30.31,ENE,61,2.0,6.0,63,0.00,,---,0.00,0.00,VWS V14.01,2013-04-22 10:50:00,
2013-04-22 06:55:00,50.3,38.2,30.31,NNE,14,0.0,6.0,63,0.00,,---,0.00,9.00,VWS V14.01,2013-04-22 10:55:00,
2013-04-22 07:00:00,50.2,38.1,30.31,North,355,1.0,5.0,63,0.00,,---,0.00,9.00,VWS V14.01,2013-04-22 11:00:00,
2013-04-22 07:05:00,50.1,38.0,30.31,ENE,71,0.0,11.0,63,0.00,,---,0.00,12.00,VWS V14.01,2013-04-22 11:05:00,
2013-04-22 07:11:00,49.9,37.8,30.31,North,360,1.0,10.0,63,0.00,,---,0.00,21.00,VWS V14.01,2013-04-22 11:11:00,
2013-04-22 07:16:00,49.8,37.7,30.31,NE,55,2.0,7.0,63,0.00,,---,0.00,30.00,VWS V14.01,2013-04-22 11:16:00,
2013-04-22 07:21:00,49.7,38.0,30.30,NE,39,4.0,9.0,64,0.00,,---,0.00,35.00,VWS V14.01,2013-04-22 11:21:00,
2013-04-22 07:26:00,49.7,37.6,30.30,ENE,62,1.0,15.0,63,0.00,,---,0.00,37.00,VWS V14.01,2013-04-22 11:26:00,
2013-04-22 07:31:00,49.6,37.5,30.31,NNE,29,0.0,6.0,63,0.00,,---,0.00,42.00,VWS V14.01,2013-04-22 11:31:00,
2013-04-22 07:36:00,49.5,37.0,30.31,NNE,26,0.0,7.0,62,0.00,,---,0.00,49.00,VWS V14.01,2013-04-22 11:36:00,
2013-04-22 07:41:00,49.5,37.4,30.31,NE,44,0.0,6.0,63,0.00,,---,0.00,70.00,VWS V14.01,2013-04-22 11:41:00,
2013-04-22 07:46:00,49.5,37.4,30.32,NNW,327,0.0,0.0,63,0.00,,---,0.00,88.00,VWS V14.01,2013-04-22 11:46:00,
2013-04-22 07:51:00,49.6,37.5,30.32,ENE,70,4.0,4.0,63,0.00,,---,0.00,76.00,VWS V14.01,2013-04-22 11:51:00,
2013-04-22 07:56:00,49.6,37.5,30.32,NE,48,0.0,1.0,63,0.00,,---,0.00,98.00,VWS V14.01,2013-04-22 11:56:00,
2013-04-22 08:01:00,49.7,37.2,30.32,ENE,68,0.0,1.0,62,0.00,,---,0.00,118.00,VWS V14.01,2013-04-22 12:01:00,
2013-04-22 08:06:00,49.8,36.9,30.32,NE,52,0.0,1.0,61,0.00,,---,0.00,128.00,VWS V14.01,2013-04-22 12:06:00,
2013-04-22 08:11:00,49.9,37.0,30.32,ENE,61,3.0,12.0,61,0.00,,---,0.00,148.00,VWS V14.01,2013-04-22 12:11:00,
2013-04-22 08:17:00,50.1,36.8,30.32,NE,55,4.0,6.0,60,0.00,,---,0.00,202.00,VWS V14.01,2013-04-22 12:17:00,
2013-04-22 08:22:00,50.3,35.7,30.32,North,11,0.0,6.0,57,0.00,,---,0.00,192.00,VWS V14.01,2013-04-22 12:22:00,
2013-04-22 08:27:00,50.4,36.2,30.32,ENE,71,5.0,5.0,58,0.00,,---,0.00,204.00,VWS V14.01,2013-04-22 12:27:00,
2013-04-22 08:32:00,50.5,34.5,30.31,ENE,64,3.0,6.0,54,0.00,,---,0.00,100.00,VWS V14.01,2013-04-22 12:32:00,
2013-04-22 08:37:00,50.5,35.0,30.32,NE,40,2.0,6.0,55,0.00,,---,0.00,281.00,VWS V14.01,2013-04-22 12:37:00,
2013-04-22 08:42:00,50.7,33.7,30.32,ENE,58,6.0,9.0,52,0.00,,---,0.00,304.00,VWS V14.01,2013-04-22 12:42:00,
2013-04-22 08:47:00,51.0,34.5,30.31,NNE,14,0.0,1.0,53,0.00,,---,0.00,322.00,VWS V14.01,2013-04-22 12:47:00,
2013-04-22 08:52:00,51.4,34.4,30.32,NE,49,6.0,6.0,52,0.00,,---,0.00,348.00,VWS V14.01,2013-04-22 12:52:00,
2013-04-22 08:57:00,51.8,34.8,30.32,NNE,19,0.0,4.0,52,0.00,,---,0.00,376.00,VWS V14.01,2013-04-22 12:57:00,
2013-04-22 09:02:00,52.2,34.6,30.32,ENE,59,4.0,6.0,51,0.00,,---,0.00,410.00,VWS V14.01,2013-04-22 13:02:00,
2013-04-22 09:07:00,52.5,33.9,30.32,NNW,343,0.0,7.0,49,0.00,,---,0.00,455.00,VWS V14.01,2013-04-22 13:07:00,
2013-04-22 09:12:00,52.9,33.8,30.32,NE,46,4.0,6.0,48,0.00,,---,0.00,455.00,VWS V14.01,2013-04-22 13:12:00,
2013-04-22 09:17:00,53.3,33.6,30.32,ENE,62,4.0,10.0,47,0.00,,---,0.00,480.00,VWS V14.01,2013-04-22 13:17:00,
2013-04-22 09:22:00,53.5,32.7,30.32,North,5,7.0,11.0,45,0.00,,---,0.00,360.00,VWS V14.01,2013-04-22 13:22:00,
2013-04-22 09:27:00,53.5,32.1,30.32,North,355,3.0,8.0,44,0.00,,---,0.00,659.00,VWS V14.01,2013-04-22 13:27:00,
2013-04-22 09:33:00,53.8,31.9,30.32,ENE,63,0.0,5.0,43,0.00,,---,0.00,552.00,VWS V14.01,2013-04-22 13:33:00,
2013-04-22 09:38:00,54.0,32.6,30.32,NE,55,2.0,4.0,44,0.00,,---,0.00,445.00,VWS V14.01,2013-04-22 13:38:00,
2013-04-22 09:43:00,54.3,31.7,30.31,ENE,61,2.0,5.0,42,0.00,,---,0.00,584.00,VWS V14.01,2013-04-22 13:43:00,
2013-04-22 09:48:00,54.4,31.8,30.31,NE,49,5.0,16.0,42,0.00,,---,0.00,279.00,VWS V14.01,2013-04-22 13:48:00,
2013-04-22 09:53:00,54.5,31.3,30.31,ENE,74,1.0,10.0,41,0.00,,---,0.00,613.00,VWS V14.01,2013-04-22 13:53:00,
2013-04-22 09:58:00,54.8,32.2,30.31,ENE,57,0.0,6.0,42,0.00,,---,0.00,631.00,VWS V14.01,2013-04-22 13:58:00,
2013-04-22 10:03:00,55.4,32.1,30.31,NE,46,3.0,5.0,41,0.00,,---,0.00,647.00,VWS V14.01,2013-04-22 14:03:00,
2013-04-22 10:08:00,55.7,31.8,30.31,NNE,12,7.0,7.0,40,0.00,,---,0.00,664.00,VWS V14.01,2013-04-22 14:08:00,
2013-04-22 10:13:00,55.9,31.3,30.31,NNE,32,2.0,7.0,39,0.00,,---,0.00,679.00,VWS V14.01,2013-04-22 14:13:00,
2013-04-22 10:18:00,56.2,32.8,30.31,NE,55,3.0,8.0,41,0.00,,---,0.00,696.00,VWS V14.01,2013-04-22 14:18:00,
2013-04-22 10:23:00,56.6,30.6,30.31,ENE,64,6.0,14.0,37,0.00,,---,0.00,710.00,VWS V14.01,2013-04-22 14:23:00,
2013-04-22 10:28:00,56.7,30.1,30.31,North,360,1.0,8.0,36,0.00,,---,0.00,726.00,VWS V14.01,2013-04-22 14:28:00,
2013-04-22 10:33:00,56.9,32.2,30.31,NE,53,0.0,10.0,39,0.00,,---,0.00,742.00,VWS V14.01,2013-04-22 14:33:00,
2013-04-22 10:38:00,57.5,32.1,30.31,NE,54,0.0,12.0,38,0.00,,---,0.00,754.00,VWS V14.01,2013-04-22 14:38:00,
2013-04-22 10:43:00,57.7,31.0,30.31,NE,41,2.0,13.0,36,0.00,,---,0.00,770.00,VWS V14.01,2013-04-22 14:43:00,
2013-04-22 10:48:00,58.0,31.9,30.31,ENE,78,5.0,11.0,37,0.00,,---,0.00,782.00,VWS V14.01,2013-04-22 14:48:00,
2013-04-22 10:54:00,58.4,31.6,30.31,North,350,0.0,12.0,36,0.00,,---,0.00,796.00,VWS V14.01,2013-04-22 14:54:00,
2013-04-22 10:59:00,58.7,31.8,30.31,East,94,5.0,8.0,36,0.00,,---,0.00,812.00,VWS V14.01,2013-04-22 14:59:00,
2013-04-22 11:04:00,58.9,31.3,30.31,NNW,348,7.0,7.0,35,0.00,,---,0.00,824.00,VWS V14.01,2013-04-22 15:04:00,
2013-04-22 11:09:00,59.3,33.0,30.31,NNE,18,1.0,6.0,37,0.00,,---,0.00,835.00,VWS V14.01,2013-04-22 15:09:00,
2013-04-22 11:14:00,59.8,32.1,30.31,NE,55,0.0,7.0,35,0.00,,---,0.00,847.00,VWS V14.01,2013-04-22 15:14:00,
2013-04-22 11:19:00,60.3,33.9,30.31,East,88,5.0,8.0,37,0.00,,---,0.00,861.00,VWS V14.01,2013-04-22 15:19:00,
2013-04-22 11:24:00,60.6,32.8,30.31,NNE,20,10.0,10.0,35,0.00,,---,0.00,868.00,VWS V14.01,2013-04-22 15:24:00,
2013-04-22 11:29:00,60.7,31.5,30.31,NE,49,2.0,12.0,33,0.00,,---,0.00,877.00,VWS V14.01,2013-04-22 15:29:00,
2013-04-22 11:34:00,60.8,31.5,30.30,NNE,19,11.0,16.0,33,0.00,,---,0.00,893.00,VWS V14.01,2013-04-22 15:34:00,
2013-04-22 11:39:00,60.9,33.1,30.30,ENE,57,3.0,11.0,35,0.00,,---,0.00,900.00,VWS V14.01,2013-04-22 15:39:00,
2013-04-22 11:44:00,61.3,33.4,30.30,NNE,15,8.0,8.0,35,0.00,,---,0.00,909.00,VWS V14.01,2013-04-22 15:44:00,
2013-04-22 11:49:00,61.7,35.2,30.30,NE,56,2.0,7.0,37,0.00,,---,0.00,916.00,VWS V14.01,2013-04-22 15:49:00,
2013-04-22 11:54:00,62.1,34.2,30.29,ESE,113,5.0,10.0,35,0.00,,---,0.00,926.00,VWS V14.01,2013-04-22 15:54:00,
2013-04-22 11:59:00,62.4,33.7,30.29,East,90,7.0,18.0,34,0.00,,---,0.00,932.00,VWS V14.01,2013-04-22 15:59:00,
2013-04-22 12:05:00,62.5,34.5,30.29,NNE,24,0.0,8.0,35,0.00,,---,0.00,940.00,VWS V14.01,2013-04-22 16:05:00,
2013-04-22 12:10:00,62.7,33.2,30.29,NE,50,3.0,10.0,33,0.00,,---,0.00,949.00,VWS V14.01,2013-04-22 16:10:00,
2013-04-22 12:15:00,62.8,33.3,30.29,North,360,0.0,12.0,33,0.00,,---,0.00,954.00,VWS V14.01,2013-04-22 16:15:00,
2013-04-22 12:20:00,63.0,34.2,30.28,North,5,11.0,18.0,34,0.00,,---,0.00,958.00,VWS V14.01,2013-04-22 16:20:00,
2013-04-22 12:25:00,62.8,34.0,30.28,NNE,30,4.0,15.0,34,0.00,,---,0.00,965.00,VWS V14.01,2013-04-22 16:25:00,
2013-04-22 12:30:00,63.0,34.2,30.28,ENE,76,8.0,15.0,34,0.00,,---,0.00,970.00,VWS V14.01,2013-04-22 16:30:00,
2013-04-22 12:35:00,63.2,33.6,30.28,ENE,62,0.0,6.0,33,0.00,,---,0.00,976.00,VWS V14.01,2013-04-22 16:35:00,
2013-04-22 12:40:00,63.8,35.7,30.28,ENE,78,0.0,4.0,35,0.00,,---,0.00,981.00,VWS V14.01,2013-04-22 16:40:00,
2013-04-22 12:45:00,64.3,35.4,30.27,North,5,4.0,15.0,34,0.00,,---,0.00,984.00,VWS V14.01,2013-04-22 16:45:00,
2013-04-22 12:50:00,64.4,35.5,30.27,ENE,76,2.0,12.0,34,0.00,,---,0.00,988.00,VWS V14.01,2013-04-22 16:50:00,
2013-04-22 12:55:00,64.6,37.1,30.27,NE,40,4.0,7.0,36,0.00,,---,0.00,990.00,VWS V14.01,2013-04-22 16:55:00,
2013-04-22 13:00:00,65.0,35.2,30.27,East,95,0.0,7.0,33,0.00,,---,0.00,997.00,VWS V14.01,2013-04-22 17:00:00,
2013-04-22 13:06:00,65.2,36.2,30.27,North,5,4.0,8.0,34,0.00,,---,0.00,1000.00,VWS V14.01,2013-04-22 17:06:00,
2013-04-22 13:11:00,65.3,36.2,30.26,North,360,7.0,16.0,34,0.00,,---,0.00,1049.00,VWS V14.01,2013-04-22 17:11:00,
2013-04-22 13:16:00,65.4,34.8,30.26,East,91,5.0,14.0,32,0.00,,---,0.00,1116.00,VWS V14.01,2013-04-22 17:16:00,
2013-04-22 13:21:00,65.1,34.5,30.26,North,5,7.0,16.0,32,0.00,,---,0.00,953.00,VWS V14.01,2013-04-22 17:21:00,
2013-04-22 13:26:00,64.7,35.7,30.25,North,350,8.0,14.0,34,0.00,,---,0.00,1065.00,VWS V14.01,2013-04-22 17:26:00,
2013-04-22 13:31:00,65.0,36.7,30.25,ENE,61,2.0,11.0,35,0.00,,---,0.00,1002.00,VWS V14.01,2013-04-22 17:31:00,
2013-04-22 13:36:00,65.3,35.5,30.25,NE,56,5.0,11.0,33,0.00,,---,0.00,1000.00,VWS V14.01,2013-04-22 17:36:00,
2013-04-22 13:41:00,65.5,36.4,30.25,NNW,344,11.0,17.0,34,0.00,,---,0.00,998.00,VWS V14.01,2013-04-22 17:41:00,
2013-04-22 13:46:00,65.6,36.5,30.25,North,9,5.0,14.0,34,0.00,,---,0.00,995.00,VWS V14.01,2013-04-22 17:46:00,
2013-04-22 13:51:00,65.8,37.4,30.25,NNE,31,3.0,12.0,35,0.00,,---,0.00,995.00,VWS V14.01,2013-04-22 17:51:00,
2013-04-22 13:56:00,66.2,36.3,30.25,North,351,6.0,15.0,33,0.00,,---,0.00,991.00,VWS V14.01,2013-04-22 17:56:00,
2013-04-22 14:01:00,66.4,37.2,30.25,ENE,71,0.0,2.0,34,0.00,,---,0.00,986.00,VWS V14.01,2013-04-22 18:01:00,
2013-04-22 14:06:00,66.8,37.6,30.25,NE,55,0.0,4.0,34,0.00,,---,0.00,984.00,VWS V14.01,2013-04-22 18:06:00,
2013-04-22 14:11:00,66.9,38.4,30.24,NNE,13,4.0,4.0,35,0.00,,---,0.00,981.00,VWS V14.01,2013-04-22 18:11:00,
2013-04-22 14:16:00,67.2,37.2,30.24,NNW,344,5.0,10.0,33,0.00,,---,0.00,972.00,VWS V14.01,2013-04-22 18:16:00,
2013-04-22 14:21:00,67.2,37.9,30.24,North,355,6.0,8.0,34,0.00,,---,0.00,970.00,VWS V14.01,2013-04-22 18:21:00,
2013-04-22 14:27:00,67.4,37.3,30.24,North,5,15.0,15.0,33,0.00,,---,0.00,963.00,VWS V14.01,2013-04-22 18:27:00,
2013-04-22 14:32:00,67.6,38.3,30.23,East,83,4.0,6.0,34,0.00,,---,0.00,956.00,VWS V14.01,2013-04-22 18:32:00,
2013-04-22 14:37:00,68.0,39.3,30.23,NNE,30,11.0,11.0,35,0.00,,---,0.00,951.00,VWS V14.01,2013-04-22 18:37:00,
2013-04-22 14:42:00,68.2,39.5,30.23,NNE,27,4.0,7.0,35,0.00,,---,0.00,946.00,VWS V14.01,2013-04-22 18:42:00,
2013-04-22 14:47:00,68.5,38.3,30.23,NNW,340,1.0,9.0,33,0.00,,---,0.00,935.00,VWS V14.01,2013-04-22 18:47:00,
2013-04-22 14:52:00,68.6,38.4,30.23,North,355,10.0,10.0,33,0.00,,---,0.00,930.00,VWS V14.01,2013-04-22 18:52:00,
2013-04-22 14:57:00,68.5,38.3,30.23,ESE,115,6.0,7.0,33,0.00,,---,0.00,921.00,VWS V14.01,2013-04-22 18:57:00,
2013-04-22 15:02:00,68.4,39.7,30.22,North,9,7.0,10.0,35,0.00,,---,0.00,907.00,VWS V14.01,2013-04-22 19:02:00,
2013-04-22 15:07:00,68.5,38.3,30.22,NNE,19,2.0,12.0,33,0.00,,---,0.00,888.00,VWS V14.01,2013-04-22 19:07:00,
2013-04-22 15:12:00,68.7,38.5,30.22,North,5,3.0,7.0,33,0.00,,---,0.00,858.00,VWS V14.01,2013-04-22 19:12:00,
2013-04-22 15:17:00,68.9,38.6,30.22,North,10,9.0,10.0,33,0.00,,---,0.00,824.00,VWS V14.01,2013-04-22 19:17:00,
2013-04-22 15:22:00,69.2,39.7,30.22,NNE,28,5.0,11.0,34,0.00,,---,0.00,786.00,VWS V14.01,2013-04-22 19:22:00,
2013-04-22 15:27:00,69.4,38.3,30.22,NE,36,4.0,11.0,32,0.00,,---,0.00,738.00,VWS V14.01,2013-04-22 19:27:00,
2013-04-22 15:32:00,69.4,38.3,30.21,NNW,342,8.0,10.0,32,0.00,,---,0.00,705.00,VWS V14.01,2013-04-22 19:32:00,
2013-04-22 15:37:00,69.2,38.1,30.21,East,101,0.0,6.0,32,0.00,,---,0.00,673.00,VWS V14.01,2013-04-22 19:37:00,
2013-04-22 15:43:00,69.3,39.0,30.20,North,360,7.0,10.0,33,0.00,,---,0.00,654.00,VWS V14.01,2013-04-22 19:43:00,
2013-04-22 15:48:00,69.4,39.8,30.20,NE,39,3.0,3.0,34,0.00,,---,0.00,647.00,VWS V14.01,2013-04-22 19:48:00,
2013-04-22 15:53:00,69.7,39.3,30.20,North,355,14.0,14.0,33,0.00,,---,0.00,657.00,VWS V14.01,2013-04-22 19:53:00,
2013-04-22 15:58:00,69.9,40.3,30.20,NNW,346,0.0,5.0,34,0.00,,---,0.00,680.00,VWS V14.01,2013-04-22 19:58:00,
2013-04-22 16:03:00,70.1,39.7,30.20,NE,51,0.0,7.0,33,0.00,,---,0.00,707.00,VWS V14.01,2013-04-22 20:03:00,
2013-04-22 16:08:00,70.2,39.8,30.20,NE,51,0.0,10.0,33,0.00,,---,0.00,726.00,VWS V14.01,2013-04-22 20:08:00,
2013-04-22 16:13:00,70.4,39.2,30.20,NE,56,3.0,9.0,32,0.00,,---,0.00,735.00,VWS V14.01,2013-04-22 20:13:00,
2013-04-22 16:18:00,70.2,39.0,30.19,NNE,17,1.0,8.0,32,0.00,,---,0.00,729.00,VWS V14.01,2013-04-22 20:18:00,
2013-04-22 16:23:00,70.2,39.8,30.19,ESE,123,0.0,4.0,33,0.00,,---,0.00,712.00,VWS V14.01,2013-04-22 20:23:00,
2013-04-22 16:28:00,70.3,39.9,30.19,NE,51,0.0,7.0,33,0.00,,---,0.00,698.00,VWS V14.01,2013-04-22 20:28:00,
2013-04-22 16:33:00,70.3,40.6,30.19,NE,53,1.0,5.0,34,0.00,,---,0.00,686.00,VWS V14.01,2013-04-22 20:33:00,
2013-04-22 16:38:00,70.4,39.2,30.19,NE,49,3.0,8.0,32,0.00,,---,0.00,670.00,VWS V14.01,2013-04-22 20:38:00,
2013-04-22 16:43:00,70.1,38.9,30.19,North,5,10.0,13.0,32,0.00,,---,0.00,654.00,VWS V14.01,2013-04-22 20:43:00,
2013-04-22 16:48:00,70.0,38.8,30.19,NE,56,3.0,8.0,32,0.00,,---,0.00,636.00,VWS V14.01,2013-04-22 20:48:00,
2013-04-22 16:54:00,69.8,38.6,30.18,ENE,63,2.0,5.0,32,0.00,,---,0.00,619.00,VWS V14.01,2013-04-22 20:54:00,
2013-04-22 16:59:00,69.7,38.5,30.18,ENE,65,0.0,3.0,32,0.00,,---,0.00,603.00,VWS V14.01,2013-04-22 20:59:00,
2013-04-22 17:04:00,69.8,38.6,30.18,North,355,10.0,13.0,32,0.00,,---,0.00,587.00,VWS V14.01,2013-04-22 21:04:00,
2013-04-22 17:09:00,69.9,37.9,30.18,East,96,1.0,6.0,31,0.00,,---,0.00,564.00,VWS V14.01,2013-04-22 21:09:00,
2013-04-22 17:14:00,69.9,39.5,30.17,NNE,13,6.0,6.0,33,0.00,,---,0.00,548.00,VWS V14.01,2013-04-22 21:14:00,
2013-04-22 17:19:00,70.0,38.8,30.17,ENE,76,1.0,6.0,32,0.00,,---,0.00,534.00,VWS V14.01,2013-04-22 21:19:00,
2013-04-22 17:24:00,70.1,38.9,30.17,ENE,64,0.0,5.0,32,0.00,,---,0.00,517.00,VWS V14.01,2013-04-22 21:24:00,
2013-04-22 17:29:00,70.1,38.9,30.17,ENE,65,3.0,3.0,32,0.00,,---,0.00,499.00,VWS V14.01,2013-04-22 21:29:00,
2013-04-22 17:34:00,70.2,39.8,30.17,NE,37,2.0,4.0,33,0.00,,---,0.00,482.00,VWS V14.01,2013-04-22 21:34:00,
2013-04-22 17:39:00,70.3,39.1,30.17,ENE,74,3.0,5.0,32,0.00,,---,0.00,462.00,VWS V14.01,2013-04-22 21:39:00,
2013-04-22 17:44:00,70.3,37.4,30.17,NNE,12,10.0,12.0,30,0.00,,---,0.00,443.00,VWS V14.01,2013-04-22 21:44:00,
2013-04-22 17:49:00,70.2,39.8,30.17,ENE,64,0.0,4.0,33,0.00,,---,0.00,424.00,VWS V14.01,2013-04-22 21:49:00,
2013-04-22 17:54:00,70.1,38.1,30.17,NNE,26,3.0,10.0,31,0.00,,---,0.00,406.00,VWS V14.01,2013-04-22 21:54:00,
2013-04-22 17:59:00,69.7,37.7,30.17,East,79,0.0,7.0,31,0.00,,---,0.00,385.00,VWS V14.01,2013-04-22 21:59:00,
2013-04-22 18:05:00,69.6,37.7,30.17,ENE,71,0.0,4.0,31,0.00,,---,0.00,366.00,VWS V14.01,2013-04-22 22:05:00,
2013-04-22 18:10:00,69.5,38.4,30.17,ENE,62,0.0,4.0,32,0.00,,---,0.00,346.00,VWS V14.01,2013-04-22 22:10:00,
2013-04-22 18:15:00,69.5,38.4,30.16,North,360,7.0,10.0,32,0.00,,---,0.00,330.00,VWS V14.01,2013-04-22 22:15:00,
2013-04-22 18:20:00,69.4,38.3,30.16,East,100,1.0,5.0,32,0.00,,---,0.00,308.00,VWS V14.01,2013-04-22 22:20:00,
2013-04-22 18:25:00,69.3,38.2,30.16,NNE,26,2.0,6.0,32,0.00,,---,0.00,294.00,VWS V14.01,2013-04-22 22:25:00,
2013-04-22 18:30:00,69.2,38.1,30.16,NNE,14,4.0,7.0,32,0.00,,---,0.00,274.00,VWS V14.01,2013-04-22 22:30:00,
2013-04-22 18:35:00,69.0,37.9,30.16,NNE,12,0.0,11.0,32,0.00,,---,0.00,251.00,VWS V14.01,2013-04-22 22:35:00,
2013-04-22 18:40:00,68.9,37.8,30.16,NE,49,3.0,6.0,32,0.00,,---,0.00,229.00,VWS V14.01,2013-04-22 22:40:00,
2013-04-22 18:45:00,68.8,38.5,30.16,East,84,1.0,6.0,33,0.00,,---,0.00,207.00,VWS V14.01,2013-04-22 22:45:00,
2013-04-22 18:50:00,68.6,37.6,30.16,ENE,60,0.0,3.0,32,0.00,,---,0.00,186.00,VWS V14.01,2013-04-22 22:50:00,
2013-04-22 18:55:00,68.6,38.4,30.16,NNE,20,0.0,5.0,33,0.00,,---,0.00,165.00,VWS V14.01,2013-04-22 22:55:00,
2013-04-22 19:00:00,68.6,38.4,30.16,NE,39,0.0,5.0,33,0.00,,---,0.00,146.00,VWS V14.01,2013-04-22 23:00:00,
2013-04-22 19:05:00,68.4,38.2,30.16,North,11,0.0,6.0,33,0.00,,---,0.00,125.00,VWS V14.01,2013-04-22 23:05:00,
2013-04-22 19:11:00,68.2,38.0,30.16,NNE,12,1.0,3.0,33,0.00,,---,0.00,107.00,VWS V14.01,2013-04-22 23:11:00,
2013-04-22 19:16:00,68.1,37.9,30.17,NE,47,0.0,4.0,33,0.00,,---,0.00,90.00,VWS V14.01,2013-04-22 23:16:00,
2013-04-22 19:21:00,67.9,38.5,30.17,North,11,0.0,5.0,34,0.00,,---,0.00,72.00,VWS V14.01,2013-04-22 23:21:00,
2013-04-22 19:26:00,67.7,38.3,30.16,NNE,22,0.0,2.0,34,0.00,,---,0.00,56.00,VWS V14.01,2013-04-22 23:26:00,
2013-04-22 19:31:00,67.5,38.9,30.16,NNE,22,0.0,1.0,35,0.00,,---,0.00,44.00,VWS V14.01,2013-04-22 23:31:00,
2013-04-22 19:36:00,67.3,39.5,30.17,NNE,22,0.0,2.0,36,0.00,,---,0.00,35.00,VWS V14.01,2013-04-22 23:36:00,
2013-04-22 19:41:00,67.1,38.6,30.17,NNE,22,0.0,1.0,35,0.00,,---,0.00,25.00,VWS V14.01,2013-04-22 23:41:00,
2013-04-22 19:46:00,66.7,38.9,30.17,NNE,22,0.0,2.0,36,0.00,,---,0.00,18.00,VWS V14.01,2013-04-22 23:46:00,
2013-04-22 19:51:00,66.5,39.5,30.17,NNE,22,0.0,1.0,37,0.00,,---,0.00,12.00,VWS V14.01,2013-04-22 23:51:00,
2013-04-22 19:56:00,66.2,39.9,30.17,NNE,22,0.0,0.0,38,0.00,,---,0.00,9.00,VWS V14.01,2013-04-22 23:56:00,
2013-04-22 20:01:00,65.8,39.5,30.17,NNE,22,0.0,0.0,38,0.00,,---,0.00,5.00,VWS V14.01,2013-04-23 00:01:00,
2013-04-22 20:06:00,65.4,39.8,30.17,NNE,22,0.0,0.0,39,0.00,,---,0.00,0.00,VWS V14.01,2013-04-23 00:06:00,
2013-04-22 20:11:00,64.9,39.4,30.17,NNE,22,0.0,0.0,39,0.00,,---,0.00,0.00,VWS V14.01,2013-04-23 00:11:00,
2013-04-22 20:16:00,64.5,39.7,30.17,NNE,22,0.0,0.0,40,0.00,,---,0.00,0.00,VWS V14.01,2013-04-23 00:16:00,
2013-04-22 20:21:00,64.1,41.2,30.18,NNE,22,0.0,0.0,43,0.00,,---,0.00,0.00,VWS V14.01,2013-04-23 00:21:00,
2013-04-22 20:26:00,63.6,41.9,30.18,NNE,22,0.0,0.0,45,0.00,,---,0.00,0.00,VWS V14.01,2013-04-23 00:26:00,
2013-04-22 20:31:00,63.0,42.5,30.18,NNE,22,0.0,0.0,47,0.00,,---,0.00,0.00,VWS V14.01,2013-04-23 00:31:00,
2013-04-22 20:36:00,62.3,42.4,30.19,NNE,22,0.0,0.0,48,0.00,,---,0.00,0.00,VWS V14.01,2013-04-23 00:36:00,
2013-04-22 20:41:00,61.8,44.0,30.19,NNE,22,0.0,0.0,52,0.00,,---,0.00,0.00,VWS V14.01,2013-04-23 00:41:00,
2013-04-22 20:46:00,61.2,43.5,30.19,NNE,22,0.0,0.0,52,0.00,,---,0.00,0.00,VWS V14.01,2013-04-23 00:46:00,
2013-04-22 20:51:00,60.5,43.3,30.19,NNE,22,0.0,0.0,53,0.00,,---,0.00,0.00,VWS V14.01,2013-04-23 00:51:00,
2013-04-22 20:57:00,59.8,43.1,30.19,NNE,22,0.0,0.0,54,0.00,,---,0.00,0.00,VWS V14.01,2013-04-23 00:57:00,
2013-04-22 21:02:00,59.1,44.3,30.19,NNE,22,0.0,0.0,58,0.00,,---,0.00,0.00,VWS V14.01,2013-04-23 01:02:00,
2013-04-22 21:07:00,58.5,43.3,30.19,NNE,22,0.0,0.0,57,0.00,,---,0.00,0.00,VWS V14.01,2013-04-23 01:07:00,
2013-04-22 21:12:00,58.0,42.9,30.19,NNE,22,0.0,0.0,57,0.00,,---,0.00,0.00,VWS V14.01,2013-04-23 01:12:00,
2013-04-22 21:17:00,57.5,43.3,30.20,NNE,22,0.0,0.0,59,0.00,,---,0.00,0.00,VWS V14.01,2013-04-23 01:17:00,
2013-04-22 21:22:00,56.9,43.2,30.20,NNE,22,0.0,0.0,60,0.00,,---,0.00,0.00,VWS V14.01,2013-04-23 01:22:00,
2013-04-22 21:27:00,56.4,43.1,30.20,NNE,22,0.0,0.0,61,0.00,,---,0.00,0.00,VWS V14.01,2013-04-23 01:27:00,
2013-04-22 21:32:00,55.9,43.5,30.20,NNE,22,0.0,0.0,63,0.00,,---,0.00,0.00,VWS V14.01,2013-04-23 01:32:00,
2013-04-22 21:37:00,55.5,43.9,30.20,NNE,22,0.0,0.0,65,0.00,,---,0.00,0.00,VWS V14.01,2013-04-23 01:37:00,
2013-04-22 21:42:00,55.1,43.2,30.20,NNE,22,0.0,0.0,64,0.00,,---,0.00,0.00,VWS V14.01,2013-04-23 01:42:00,
2013-04-22 21:47:00,54.8,43.7,30.20,NNE,22,0.0,0.0,66,0.00,,---,0.00,0.00,VWS V14.01,2013-04-23 01:47:00,
2013-04-22 21:52:00,54.4,43.7,30.21,NNE,22,0.0,0.0,67,0.00,,---,0.00,0.00,VWS V14.01,2013-04-23 01:52:00,
2013-04-22 21:57:00,54.0,43.7,30.21,NNE,22,0.0,0.0,68,0.00,,---,0.00,0.00,VWS V14.01,2013-04-23 01:57:00,
2013-04-22 22:02:00,53.6,43.3,30.21,NNE,22,0.0,0.0,68,0.00,,---,0.00,0.00,VWS V14.01,2013-04-23 02:02:00,
2013-04-22 22:07:00,53.3,43.0,30.21,NNE,22,0.0,0.0,68,0.00,,---,0.00,0.00,VWS V14.01,2013-04-23 02:07:00,
2013-04-22 22:12:00,53.0,43.1,30.21,NNE,22,0.0,0.0,69,0.00,,---,0.00,0.00,VWS V14.01,2013-04-23 02:12:00,
2013-04-22 22:18:00,52.6,42.7,30.21,NNE,22,0.0,0.0,69,0.00,,---,0.00,0.00,VWS V14.01,2013-04-23 02:18:00,
2013-04-22 22:23:00,52.3,43.2,30.21,NNE,22,0.0,0.0,71,0.00,,---,0.00,0.00,VWS V14.01,2013-04-23 02:23:00,
2013-04-22 22:28:00,52.1,43.0,30.21,NNE,22,0.0,0.0,71,0.00,,---,0.00,0.00,VWS V14.01,2013-04-23 02:28:00,
2013-04-22 22:33:00,51.7,43.0,30.21,NNE,22,0.0,0.0,72,0.00,,---,0.00,0.00,VWS V14.01,2013-04-23 02:33:00,
2013-04-22 22:38:00,51.4,43.0,30.21,NNE,22,0.0,0.0,73,0.00,,---,0.00,0.00,VWS V14.01,2013-04-23 02:38:00,
2013-04-22 22:43:00,51.1,43.1,30.21,NNE,22,0.0,0.0,74,0.00,,---,0.00,0.00,VWS V14.01,2013-04-23 02:43:00,
2013-04-22 22:48:00,50.9,43.6,30.21,NNE,22,0.0,0.0,76,0.00,,---,0.00,0.00,VWS V14.01,2013-04-23 02:48:00,
2013-04-22 22:53:00,50.5,42.9,30.21,NNE,22,0.0,0.0,75,0.00,,---,0.00,0.00,VWS V14.01,2013-04-23 02:53:00,
2013-04-22 22:58:00,50.3,42.7,30.21,NNE,22,0.0,0.0,75,0.00,,---,0.00,0.00,VWS V14.01,2013-04-23 02:58:00,
2013-04-22 23:03:00,50.1,42.2,30.21,NNE,22,0.0,0.0,74,0.00,,---,0.00,0.00,VWS V14.01,2013-04-23 03:03:00,
2013-04-22 23:08:00,49.9,42.3,30.21,NNE,22,0.0,0.0,75,0.00,,---,0.00,0.00,VWS V14.01,2013-04-23 03:08:00,
2013-04-22 23:13:00,49.7,42.1,30.21,NNE,22,0.0,0.0,75,0.00,,---,0.00,0.00,VWS V14.01,2013-04-23 03:13:00,
2013-04-22 23:18:00,49.6,42.4,30.21,NNE,22,0.0,0.0,76,0.00,,---,0.00,0.00,VWS V14.01,2013-04-23 03:18:00,
2013-04-22 23:23:00,49.4,42.5,30.21,NNE,22,0.0,0.0,77,0.00,,---,0.00,0.00,VWS V14.01,2013-04-23 03:23:00,
2013-04-22 23:28:00,49.2,42.3,30.21,NNE,22,0.0,0.0,77,0.00,,---,0.00,0.00,VWS V14.01,2013-04-23 03:28:00,
2013-04-22 23:34:00,49.1,42.9,30.21,NNE,22,0.0,0.0,79,0.00,,---,0.00,0.00,VWS V14.01,2013-04-23 03:34:00,
2013-04-22 23:39:00,48.9,42.7,30.21,NNE,22,0.0,0.0,79,0.00,,---,0.00,0.00,VWS V14.01,2013-04-23 03:39:00,
2013-04-22 23:44:00,48.7,42.8,30.21,NNE,22,0.0,0.0,80,0.00,,---,0.00,0.00,VWS V14.01,2013-04-23 03:44:00,
2013-04-22 23:49:00,48.6,42.7,30.21,NNE,22,0.0,0.0,80,0.00,,---,0.00,0.00,VWS V14.01,2013-04-23 03:49:00,
2013-04-22 23:54:00,48.4,42.5,30.21,NNE,22,0.0,0.0,80,0.00,,---,0.00,0.00,VWS V14.01,2013-04-23 03:54:00,
2013-04-22 23:59:00,48.2,42.0,30.21,NNE,22,0.0,0.0,79,0.00,,---,0.00,0.00,VWS V14.01,2013-04-23 03:59:00,